Location: Albany
(35.0170°S, 117.8920°E)
Time: 11:31:00
(UTC+08:00)

S-56A Canister/Altair - Pass Details

Date: 30 January 2021
Orbit: 631 x 2501 km, 38.9° (Epoch: 02 March)

Event Time Altitude Azimuth Distance (km) Brightness Sun altitude
Rises 10:25:02 0° 325° (NW) 4,524 11.4 58.8°
Reaches altitude 10° 10:27:50 10° 332° (NNW) 3,782 11.2 59.3°
Maximum altitude 10:37:36 47° 41° (NE) 2,549 12.0 61.1°
Drops below altitude 10° 10:50:52 10° 108° (ESE) 5,081 12.1 63.3°
Sets 10:55:16 0° 112° (ESE) 6,175 12.3 64.1°
